AirNav   Everest Fuels
 
 543 users online  

KEZI Kewanee Municipal Airport
Kewanee, Illinois, USA

GOING TO KEWANEE?


FAA INFORMATION EFFECTIVE 05 DECEMBER 2019

Location

FAA Identifier: EZI
Lat/Long: 41-12-18.7000N 089-57-49.9000W
41-12.311667N 089-57.831667W
41.2051944,-89.9638611
(estimated)
Elevation: 858 ft. / 261.5 m (surveyed)
Variation: 02W (2015)
From city: 3 miles SW of KEWANEE, IL
Time zone: UTC -6 (UTC -5 during Daylight Saving Time)
Zip code: 61443

Airport Operations

Airport use: Open to the public
Control tower: no
ARTCC: CHICAGO CENTER
FSS: KANKAKEE FLIGHT SERVICE STATION
NOTAMs facility: IKK (NOTAM-D service available)
Attendance: MON-FRI 0800-1800, ALL SAT 0800-1700, ALL SUN 0900-1700
Pattern altitude: 1258 ft. MSL
TPA: 400 FT AGL ULTRALIGHT.
Wind indicator: lighted
Segmented circle: yes
Lights: MIRL RY 09/27 PRESET ON LOW INTST; TO INCR INTST & ACTVT MIRL RY 01/19 & TWY LGTS - CTAF.
Beacon: white-green (lighted land airport)
Operates sunset to sunrise.

Airport Communications

CTAF/UNICOM: 122.8
QUAD CITY APPROACH: 133.275
QUAD CITY DEPARTURE: 133.275
  • APCH/DEP SVC PRVDD BY CHICAGO ARTCC (ZAU) ON FREQS 118.75/377.05 (MOLINE RCAG) WHEN QUAD CITY APCH CLSD.

Nearby radio navigation aids

VOR radial/distance  VOR name  Freq  Var
BDFr279/17.2BRADFORD VORTAC114.7000E
GBGr050/26.7GALESBURG VOR/DME109.8003E
MZVr098/31.2MOLINE VOR/DME114.4005E
PIAr342/32.4PEORIA VORTAC115.2004E
CVAr138/38.2DAVENPORT VORTAC113.8004E

Airport Services

Fuel available: 100LL
Parking: hangars and tiedowns
Airframe service: MAJOR
Powerplant service: MAJOR
Bottled oxygen: NONE
Bulk oxygen: NONE

Runway Information

Runway 9/27

Dimensions: 4500 x 75 ft. / 1372 x 23 m
Surface: asphalt, in good condition
Weight bearing capacity: 
Single wheel: 20.0
Runway edge lights: medium intensity
RUNWAY 9  RUNWAY 27
Latitude: 41-12.245988N41-12.231790N
Longitude: 089-58.428632W089-57.447698W
Elevation: 853.8 ft.856.3 ft.
Traffic pattern: leftleft
Runway heading: 093 magnetic, 091 true273 magnetic, 271 true
Markings: nonprecision, in good conditionnonprecision, in good condition
Visual slope indicator: pulsating/steady burning VASI on left (3.50 degrees glide path)
RY 09 PVASI UNUSBL BYD 6 DEG LEFT AND RIGHT OF CNTRLN.
pulsating/steady burning VASI on left (3.00 degrees glide path)
RY 27 PVASI UNUSBL BYD 6 DEG LEFT AND RIGHT OF CNTRLN.
Runway end identifier lights: no
Touchdown point: yes, no lightsyes, no lights

Runway 1/19

Dimensions: 3200 x 60 ft. / 975 x 18 m
Surface: asphalt, in good condition
Weight bearing capacity: 
Single wheel: 20.0
Runway edge lights: medium intensity
Gradient: S
RUNWAY 1  RUNWAY 19
Latitude: 41-12.156590N41-12.673108N
Longitude: 089-57.752145W089-57.614733W
Elevation: 855.1 ft.837.6 ft.
Traffic pattern: leftleft
Runway heading: 013 magnetic, 011 true193 magnetic, 191 true
Markings: nonprecision, in good conditionnonprecision, in good condition
Touchdown point: yes, no lightsyes, no lights

Airport Ownership and Management from official FAA records

Ownership: Publicly-owned
Owner: KEWANEE AIRPORT AUTHORITY
3761 MIDLAND RD
KEWANEE, IL 61443
Phone 309-853-8671
Manager: ROSS CARBIENER
3769 MIDLAND RD.
KEWANEE, IL 61443
Phone 309-853-8671

Airport Operational Statistics

Aircraft based on the field: 21
Single engine airplanes: 18
Multi engine airplanes: 2
Ultralights: 1
    
Aircraft operations: avg 33/day *
67% local general aviation
33% transient general aviation
<1% military
* for 12-month period ending 30 June 2017

Additional Remarks

ULTRALIGHT ACTIVITY ON & INVOF ARPT.
HOSPITAL HELIPORT 1.2 NM NORTHEAST OF ARPT.
FOR CD CTC CHICAGO ARTCC AT 630-906-8921.

Instrument Procedures

NOTE: All procedures below are presented as PDF files. If you need a reader for these files, you should download the free Adobe Reader.

NOT FOR NAVIGATION. Please procure official charts for flight.
FAA instrument procedures published for use from 05 December 2019 at 0900Z to 02 January 2020 at 0900Z.

 
IAPs - Instrument Approach Procedures
RNAV (GPS) RWY 01   download (183KB)
RNAV (GPS) RWY 09   download (216KB)
RNAV (GPS) RWY 19   download (177KB)
RNAV (GPS) RWY 27   download (211KB)
NOTE: Special Take-Off Minimums/Departure Procedures apply   download (201KB)

Other nearby airports with instrument procedures:

KGBG - Galesburg Municipal Airport (27 nm SW)
C75 - Marshall County Airport (28 nm SE)
KMLI - Quad City International Airport (29 nm NW)
3MY - Mount Hawley Auxiliary Airport (29 nm SE)
C66 - Monmouth Municipal Airport (34 nm SW)
 
Loc | Ops | Rwys | IFR | FBO | Links
Com | Nav | Svcs | Stats | Notes
Area around KEZI (Kewanee Municipal Airport)
 
Road maps at: MapQuest Bing Google
 
Aerial photo
WARNING: Photo may not be current or correct
Aerial photo of KEZI (Kewanee Municipal Airport)
Photo by Greg Neaveill
Photo taken 09-Nov-2016
looking southeast

Do you have a better or more recent aerial photo of Kewanee Municipal Airport that you would like to share? If so, please send us your photo.

 
Sectional chart

 
Airport distance calculator
Flying to Kewanee Municipal Airport? Find the distance to fly.

From to KEZI

Sunrise and sunset
Times for 10-Dec-2019
 Local
(UTC-6)
 Zulu
(UTC)
Morning civil twilight06:4412:44
Sunrise07:1513:15
Sunset16:3022:30
Evening civil twilight17:0123:01

Current date and time
Zulu (UTC)  10-Dec-2019 06:07:07
Local (UTC-6)  10-Dec-2019 00:07:07
 
METAR
KGBG 
27nm SW 
100555Z AUTO 27018G27KT 10SM CLR M09/M12 A3003 RMK AO2 T10881125 11042 21088 400921088
KC75 
29nm SE 
100555Z AUTO 28016G21KT 10SM -SN OVC021 M07/M11 A2998 RMK AO2 T10731112 11023 21077 400921077
KMLI 
29nm NW 
100552Z AUTO 28016G25KT 10SM OVC040 M09/M15 A3000 RMK AO2 PK WND 28030/0502 SLP165 60000 T10891150 11056 21089 400891089 51034 $
KPIA 
35nm S 
100554Z 29012G24KT 10SM FEW018 M08/M13 A3000 RMK AO2 PK WND 29027/0459 SLP165 60000 T10781128 11028 21078 401001078 51014 $
KSQI 
35nm N 
100556Z AUTO 27020KT 9SM -SN BKN018 OVC030 M08/M11 A2994 RMK AO2 SLP008 P0000 6//// T10831111 11033 21083 400781083 51022 FZRANO
KDVN 
37nm NW 
100552Z AUTO 27016G27KT 10SM OVC040 M10/M15 A3001 RMK AO2 PK WND 27028/0542 SLP166 60000 T11001150 11061 21100 400781100 51035
KVYS 
38nm E 
100555Z AUTO 27017G25KT 10SM OVC016 M07/M10 A2994 RMK AO2 T10741104 11026 21075 400871075
KCWI 
40nm NW 
100556Z AUTO 27021KT 9SM -SN BKN017 BKN023 OVC039 M10/M12 A2997 RMK AO2 PK WND 28026/0526 SLP162 P0000 60000 T11001122 11056 21100 400721100 50013 FZRANO
TAF
KMLI 
29nm NW 
100520Z 1006/1106 30015G22KT P6SM -SN BKN025 FM100800 31012G18KT P6SM SKC FM101500 30011KT P6SM SCT080 FM110000 VRB03KT P6SM SCT100
KPIA 
35nm S 
100520Z 1006/1106 29014G23KT P6SM FEW025 SCT250 TEMPO 1006/1008 BKN018 FM101200 28011KT P6SM SCT250 FM110000 29005KT P6SM FEW250
NOTAMs
Click for the latest NOTAMs
NOTAMs are issued by the DoD/FAA and will open in a separate window not controlled by AirNav.

 

 
 

FBO, Fuel Providers, and Aircraft Ground Support

  
 Business Name 
 
 Contact 
 
 Services / Description 
 
Fuel Prices
 
Comments
  
Kewanee Airport Authority 309-853-8671
no information available

If you are affiliated with Kewanee Airport Authority and would like to show here your services, contact info, web link, logo, and more, click here
100LL
PS $4.67 
 Updated 06-Dec-2019
 
   write
PS=Pump service
Update Fuel Prices
 

Would you like to see your business listed on this page?

 If your business provides an interesting product or service to pilots, flight crews, aircraft, or users of the Kewanee Municipal Airport, you should consider listing it here.  To start the listing process, click on the button below
 
Add a business
 

Other Pages about Kewanee Municipal Airport

www.kewaneeairport.com
 
Update a link
 
Copyright © AirNav, LLC. All rights reserved. Privacy Policy  Contact